Regional Weather Roundup
Issued by NWS

Home | Current Version | Previous Version | Graphics & Text | Print | Product List | Glossary On
Versions: 1 2 3 4 5 6 7 8 9 10 11 12 13 14 15 16 17 18 19 20 21 22 23 24 25 26 27 28 29 30 31 32 33 34 35 36 37 38 39 40 41 42 43 44 45 46 47 48 49 50
000
ASUS43 KLOT 251608
RWRIL

ILLINOIS REGIONAL WEATHER ROUNDUP
NATIONAL WEATHER SERVICE CHICAGO/ROMEOVILLE IL
1000 AM CST SUN FEB 25 2018

NOTE: "FAIR" INDICATES FEW OR NO CLOUDS BELOW 12,000 FEET WITH NO
SIGNIFICANT WEATHER AND/OR OBSTRUCTIONS TO VISIBILITY.

* THESE STATIONS ARE NOT UNDER NWS QUALITY CONTROL. THEY ALSO MAY NOT
  REPORT WEATHER SUCH AS PRECIPITATION OR FOG.

ILZ001-002-007-009-015-016-024-251700-
NORTHWEST ILLINOIS

CITY           SKY/WX    TMP DP  RH WIND       PRES   REMARKS
MOLINE         FAIR      36  22  56 W14       29.93R WCI  27
STERLING*      FAIR      35  24  64 W20G25    29.91R WCI  24
SAVANNA*       FAIR      32  21  64 W13G20    29.90R WCI  22
$$

ILZ003-004-008-010-011-017-018-251700-
NORTH CENTRAL ILLINOIS

CITY           SKY/WX    TMP DP  RH WIND       PRES   REMARKS
ROCKFORD       FAIR      32  22  66 W16G23    29.88R WCI  21
FREEPORT*      FAIR      30  21  68 W17G23    29.89R WCI  18
ROCHELLE*      FAIR      33  26  77 W20G29    29.90R WCI  21
DE KALB*       FAIR      33  26  75 W21G30    29.89R WCI  21
PERU*          FAIR      35  25  67 W16G23    29.94R WCI  25
$$

ILZ005-006-012>014-019>023-251700-
NORTHEAST ILLINOIS

CITY           SKY/WX    TMP DP  RH WIND       PRES   REMARKS
CHICAGO-OHARE  PTSUNNY   37  26  64 W20G30    29.86R WCI  27
CHICAGO-MIDWAY FAIR      37  27  67 SW22G29   29.89R WCI  26
AURORA         FAIR      35  28  75 SW18G26   29.89R WCI  24
LANSING*       PTSUNNY   37  30  76 W20G29    29.91R WCI  26
JOLIET*        PTSUNNY   37  29  70 W21G26    29.93R WCI  27
WAUKEGAN       FAIR      37  25  61 SW17G31   29.81R WCI  27
DUPAGE AIRPORT FAIR      36  28  73 SW21G29   29.88R WCI  25
KANKAKEE*      CLOUDY    37  29  72 W21       29.97R WCI  26
WHEELING       FAIR      38  26  62 SW17G26   29.86R WCI  28
MORRIS*        FAIR      36  25  64 W21G31    29.92R WCI  25
ROMEOVILLE*    PTSUNNY   35  28  74 W24G35    29.91R WCI  23
NORTHERLY ISL    N/A     36  24  62 SW15        N/A  WCI  27
$$

LMZ740>746-251700-
SOUTHERN LAKE MICHIGAN

STATION/POSITION SKY/WX   TEMP    WIND        PRES    VSBY  WAVE
                          AIR SEA DIR/SP/G                  HT/PER
                          (F)     (DEG/KT/KT) (MB)    (MI)  (FT/S)
HARRISON CRIB              36     240/ 20/ 25   N/A
BURNHAM HARBOR             37     250/ 10/ 19   N/A
CALUMET HARBOR             37     220/ 14/ 23 1011.4R
BURNS HARBOR               36     240/ 21/ 26 1012.9R
MICHIGAN CITY              35     220/ 23/ 29   N/A
$$

ILZ025>027-034>036-040-047-049-050-058-095>099-251700-
WEST-CENTRAL ILLINOIS

CITY           SKY/WX    TMP DP  RH WIND       PRES   REMARKS
QUINCY         SUNNY     37  24  59 W8        30.03R WCI  31
GALESBURG*     FAIR      36  26  66 SW9       29.97S WCI  29
MACOMB*        SUNNY    N/A N/A N/A W13       30.01R
JACKSONVILLE*  SUNNY     37  26  63 W8        30.05R WCI  31
PITTSFIELD*    SUNNY     38  26  62 SW9       30.06R WCI  32
$$

ILZ028>032-037-038-041>044-048-051>054-059>061-251700-
CENTRAL ILLINOIS

CITY           SKY/WX    TMP DP  RH WIND       PRES   REMARKS
PONTIAC        FAIR      37  31  77 W20G26    29.97R WCI  27
BLOOMINGTON    PTSUNNY   37  30  75 W14       29.99R WCI  28
DECATUR        FAIR      39  27  62 W13       30.03R WCI  31
PEORIA         FAIR      37  25  61 W14G21    29.99R WCI  28
LACON*         FAIR      36  26  65 W12       29.96R WCI  28
LINCOLN*       FAIR      38  27  64 W8G16     30.02R WCI  33
SPRINGFIELD    FAIR      39  29  67 W16       30.04R WCI  30
TAYLORVILLE    FAIR      38  28  67 W12       30.06R WCI  30
$$

ILZ033-039-045-046-055>057-062-063-251700-
EAST-CENTRAL ILLINOIS

CITY           SKY/WX    TMP DP  RH WIND       PRES   REMARKS
CHAMPAIGN      PTSUNNY   38  31  76 SW18      30.02R WCI  28
DANVILLE*      CLOUDY    36  30  78 SW17      29.98R WCI  26
RANTOUL*       CLOUDY    39  32  77 SW15G22   30.00R WCI  30
MATTOON        FAIR      40  28  62 W14       30.05R
PARIS*         PTSUNNY   40  32  74 SW18G24   30.05R
$$

ILZ079-100>102-251700-
SOUTHWEST ILLINOIS

CITY           SKY/WX    TMP DP  RH WIND       PRES   REMARKS
ALTON          MOSUNNY   41  36  81 W10       30.10R
BELLEVILLE     FAIR      43  30  61 SW9       30.11R
CAHOKIA*       FAIR      41  28  60 SW8       30.11R
SPARTA*        FAIR      40  33  74 W3        30.14R
$$

ILZ064>066-069>071-074>076-080>082-084>086-088>090-092>094-251700-
SOUTH-CENTRAL ILLINOIS

CITY           SKY/WX    TMP DP  RH WIND       PRES   REMARKS
CARBONDALE     FAIR      42  33  70 SW9       30.14R
CAIRO*         FAIR      43  34  69 W6        30.16S
EFFINGHAM*     FAIR      42  33  71 SW14      30.10R
MARION         PTSUNNY   41  30  65 W6        30.15R
MT. VERNON     FAIR      42  34  73 SW13      30.13R
CENTRALIA*     FAIR      42  34  75 SW13      30.11R
SALEM*         FAIR      42  33  70 W14       30.11R
METROPOLIS*    FAIR      45  33  63 W7        30.15S
$$

ILZ067-068-072-073-078-083-087-091-251700-
SOUTHEAST ILLINOIS

CITY           SKY/WX    TMP DP  RH WIND       PRES   REMARKS
LAWRENCEVILLE  FAIR      45  34  65 SW15      30.10R
FLORA*         FAIR      43  34  69 SW12      30.12R
FAIRFIELD*     FAIR      42  33  70 MISG      30.12R
HARRISBURG*    FAIR      43  33  66 W9        30.15R
ROBINSON*      FAIR      40  33  75 W15G22    30.10R
CARMI*         FAIR      43  34  70 SW12      30.13R
$$

ABBREVIATIONS USED IN REMARKS
   TC - TEMPERATURE IN CELSIUS
  WCI - WIND CHILL INDEX
   HX - HEAT INDEX
  VSB - VISIBILITY
$$




USA.gov is the U.S. government's official web portal to all federal, state and local government web resources and services.